Location: Bretagne
(43.8474°N, 0.4650°W)
Time: 23:32:19
(UTC+00:00)

Envisat - Pass Details

Date: 09 March 2026
Orbit: 761 x 762 km, 98.4° (Epoch: 13 April)

Event Time Altitude Azimuth Distance (km) Brightness Sun altitude
Rises 03:13:35 0° 8° (N) 3,235 6.7 -34.1°
Reaches altitude 10° 03:15:57 10° 4° (N) 2,304 5.8 -33.7°
Enters shadow 03:17:27 19° 358° (N) 1,742 5.0 -33.5°
